カタログに戻る

QIANFAN-49

運用中通信PO
NORAD 62250·PAYLOAD·🇨🇳 China

打ち上げ Dec 5, 2024 から Taiyuan Satellite Launch Center

Loading…

次のパス (今後24時間)

TLE

最新Source: Space-Track

元期: Sep 14, 2026, 20:57 UTC

1 62250U 24232P   26257.87294585  .00000100  00000-0  13670-3 0  9999
2 62250  89.0159  13.5228 0016077 115.9365 244.3445 13.51029587105127

AllMySatでQIANFAN-49をリアルタイム追跡

Download on the App Store